カタログに戻る

DELTA 1 DEB

運用中UNKNOWN
NORAD 10649·DEBRIS·🇺🇸 United States

打ち上げ Jul 29, 1976 から Vandenberg Space Force Base

Loading…

次のパス (今後24時間)

TLE

最新Source: Space-Track

元期: Sep 14, 2026, 05:22 UTC

1 10649U 76077K   26257.22408816 -.00000060  00000-0 -25653-3 0  9992
2 10649 102.2885 174.2953 0376931 308.2718 213.5434 11.80282826146817

AllMySatでDELTA 1 DEBをリアルタイム追跡

Download on the App Store